Total_Precipitation_Accumulation
0.20 0.90 2.45 4.71 6.25 5.80 4.77 4.54 3.18 2.31 1.12 0.62 0.54 0.67 1.41 2.08 2.76 3.32 0.60 0.43 0.17 0.18 0.54 1.75 2.65 1.97 1.62 1.75 1.51 1.35 1.15 1.24 1.46 1.33 0.84 0.70 0.94 1.20 1.10 1.25 1.72 1.92 1.42 1.16 1.01 1.12 1.40 1.23 1.10
0.92 1.87 3.87 7.81 7.03 6.13 6.61 3.35 2.58 1.88 0.91 0.53 0.43 0.69 1.78 0.79 0.12 0.21 0.28 0.28 0.15 0.12 0.27 0.87 2.61 2.16 1.30 1.32 1.31 1.35 1.00 1.29 1.52 1.68 1.81 1.36 1.45 1.54 1.61 1.58 1.88 2.21 2.02 1.48 1.40 1.43 1.14 1.30 1.44
1.23 3.49 8.59 10.26 7.39 9.31 7.60 3.53 2.51 1.25 0.82 0.37 0.87 0.56 0.81 0.35 0.07 0.14 0.16 0.11 0.26 0.40 0.29 0.79 2.28 2.21 1.54 1.29 1.36 1.65 1.70 1.74 1.61 2.01 2.18 2.02 2.10 2.27 2.45 1.85 1.79 1.74 1.63 1.42 1.25 1.52 1.65 1.85 1.96
1.35 5.01 7.29 6.56 7.13 5.51 4.44 3.60 2.38 1.33 0.74 0.44 0.80 0.43 0.16 0.09 0.03 0.03 0.12 0.23 0.35 0.67 0.63 1.37 1.76 1.83 2.09 1.64 1.71 1.79 2.23 2.37 2.26 2.13 2.09 2.30 2.64 2.34 2.22 1.75 1.76 1.45 0.99 0.69 0.89 1.28 1.60 1.92 2.10
2.69 6.55 10.64 6.11 4.23 4.05 2.40 2.03 1.83 1.41 0.89 0.69 0.38 0.38 0.26 0.16 0.06 0.07 0.08 0.19 0.28 0.41 0.47 1.01 2.36 2.22 2.14 1.88 2.03 1.90 2.03 2.00 2.00 2.49 2.88 2.88 2.46 2.09 2.14 1.66 1.24 1.03 0.63 0.39 0.76 1.27 1.63 1.84 1.74
5.37 6.61 7.66 4.14 2.63 3.92 2.72 1.94 2.29 1.52 1.29 1.10 0.38 0.29 0.30 0.21 0.08 0.10 0.10 0.14 0.23 0.26 0.36 0.98 2.46 3.47 3.41 2.47 2.16 1.85 1.58 1.74 2.46 2.80 2.62 2.53 2.59 2.39 1.80 1.39 1.04 0.77 0.61 0.77 0.71 0.95 1.57 1.67 1.62
3.72 7.62 4.20 2.82 2.54 4.67 3.81 2.54 2.44 1.26 1.00 0.72 0.25 0.23 0.62 0.51 0.30 0.17 0.16 0.31 0.36 0.35 0.83 1.09 1.76 3.01 4.33 4.85 3.24 2.09 1.54 1.64 2.22 2.62 2.62 2.48 2.23 2.06 1.43 1.26 1.01 0.58 0.79 0.73 1.21 1.61 1.69 1.86 1.85
3.41 6.65 5.96 2.84 3.60 3.83 1.72 1.28 1.48 1.04 0.95 0.56 0.31 0.44 1.73 0.76 0.41 0.24 0.29 0.37 0.47 0.68 0.62 1.31 1.86 2.70 3.41 2.50 3.58 2.98 1.85 1.75 2.29 2.55 2.51 2.75 2.51 2.45 1.94 1.51 1.14 0.70 0.88 0.95 1.07 1.39 1.27 1.61 1.84
1.69 5.73 5.22 2.71 2.68 2.60 1.31 1.19 1.81 1.25 0.54 0.40 0.40 0.26 0.16 0.09 0.17 0.25 0.32 0.65 0.53 0.65 0.90 0.88 1.25 1.51 2.15 2.40 2.23 2.63 2.14 2.35 2.91 2.86 2.98 3.17 2.57 2.10 1.75 1.74 0.93 0.72 0.86 0.78 0.85 0.73 1.16 1.79 1.93
3.63 6.60 5.71 2.97 1.55 1.29 0.96 1.30 0.97 0.77 0.63 0.67 0.46 0.31 0.31 0.18 0.17 0.19 0.18 0.29 0.39 0.43 1.03 1.52 1.45 0.88 0.89 1.26 1.89 2.19 2.30 3.11 2.97 2.12 2.41 2.59 1.56 1.30 1.39 1.53 1.15 0.95 0.94 1.11 1.11 1.17 1.89 2.60 3.15
2.72 5.20 3.80 3.19 1.31 1.10 1.15 1.33 0.88 0.79 1.61 1.70 1.25 0.73 0.63 0.21 0.18 0.13 0.17 0.21 0.16 0.22 0.39 1.51 1.03 1.12 0.71 1.05 1.19 1.23 1.75 1.45 1.27 1.40 1.97 2.10 1.12 1.11 1.13 0.93 1.31 0.80 1.39 1.95 2.05 2.05 2.74 3.31 4.15
1.97 2.43 2.59 2.67 1.15 1.12 1.62 1.35 1.44 1.43 1.68 0.57 0.55 0.24 0.17 0.11 0.29 0.26 0.21 0.24 0.31 0.20 0.35 0.39 0.62 0.96 0.76 0.58 0.85 1.14 1.05 0.75 0.65 0.76 0.82 0.92 1.12 1.45 1.59 1.49 1.60 1.46 0.92 2.13 2.30 2.77 1.61 2.08 2.84
1.38 2.44 1.71 2.05 1.66 1.48 1.12 1.09 1.58 1.33 2.49 0.84 0.32 0.12 0.08 0.17 0.48 0.63 0.53 0.60 0.39 0.33 0.24 0.29 0.49 0.86 0.86 1.03 1.24 0.91 0.60 0.58 0.62 0.94 1.24 1.81 1.09 0.98 0.71 1.18 1.40 1.68 1.03 1.90 1.82 2.76 2.02 2.24 2.32
1.06 1.60 1.31 1.51 2.19 1.56 1.72 1.23 0.77 1.10 1.04 0.84 0.39 0.16 0.24 0.28 0.47 1.00 0.92 1.09 0.62 0.59 0.39 0.37 0.65 0.53 0.49 0.65 0.88 0.77 0.72 0.38 0.79 0.97 1.70 1.97 1.27 1.38 1.32 1.41 1.45 1.91 1.10 1.30 1.46 2.34 2.19 2.45 2.40
0.88 1.79 1.80 1.65 2.02 1.82 2.30 3.64 1.41 1.29 1.07 0.72 0.45 0.48 0.52 0.76 1.05 3.11 2.36 1.62 1.19 0.71 0.61 0.55 0.62 0.41 0.40 0.63 0.77 0.98 0.93 0.48 0.69 1.54 1.32 1.15 1.40 1.82 2.08 2.22 1.76 1.02 0.82 0.84 1.24 2.09 2.08 2.06 1.86
2.49 2.75 2.88 2.67 2.22 1.73 2.65 5.87 2.92 1.33 0.91 0.86 0.97 1.14 0.48 1.09 1.48 2.44 1.88 2.50 2.53 0.75 0.77 0.94 0.62 0.40 0.44 0.31 0.71 1.31 1.27 0.56 1.11 1.66 1.48 1.23 1.36 1.89 2.41 2.26 1.71 1.36 1.06 1.40 1.89 3.07 3.48 3.48 3.51
2.02 2.54 3.20 3.07 2.46 2.79 3.35 5.42 3.43 1.19 0.77 1.45 2.24 0.88 0.93 1.76 2.06 2.08 1.33 1.09 0.73 1.02 1.09 2.16 1.66 1.19 1.16 0.65 1.00 1.44 0.91 0.70 1.25 1.69 1.66 1.83 1.14 1.74 2.58 3.05 2.09 1.72 1.68 1.94 2.11 2.85 3.83 4.15 3.00
1.65 1.16 1.95 2.72 2.32 3.29 2.84 2.11 2.32 1.22 2.23 1.44 1.00 0.53 1.68 2.08 1.62 1.27 0.78 0.68 0.53 1.40 1.23 1.71 2.24 1.86 1.33 1.27 1.27 1.29 0.96 0.84 0.71 1.25 1.76 2.01 1.30 1.11 1.57 2.08 2.40 3.00 2.08 2.59 2.77 3.59 2.61 3.01 3.91
0.28 1.08 1.84 2.45 2.44 3.26 2.63 2.10 2.88 1.09 1.78 1.75 0.52 1.14 1.70 1.31 1.38 0.90 0.43 0.62 0.60 1.17 1.03 1.11 2.38 3.01 1.80 1.03 1.09 0.72 0.81 1.06 0.94 1.42 2.80 2.58 1.84 1.39 1.94 2.18 2.42 3.53 3.18 3.39 2.77 3.09 3.20 3.52 3.39
0.23 0.95 1.39 2.34 2.03 3.07 5.05 3.66 2.65 1.37 1.11 0.94 0.76 1.62 1.39 0.84 1.23 0.82 0.48 0.76 0.55 0.39 0.75 0.95 0.95 1.34 1.67 1.29 1.16 0.95 1.00 0.91 1.31 1.62 2.24 2.03 1.30 1.54 1.53 2.44 3.31 3.20 2.50 2.38 2.08 2.31 3.13 3.64 3.07
0.21 0.38 0.73 1.17 1.29 2.03 3.73 5.08 3.44 1.57 1.56 1.49 1.03 0.95 0.55 0.90 1.83 1.02 0.74 0.42 0.64 0.27 0.41 0.63 0.70 1.01 1.31 1.35 1.56 1.46 1.54 1.76 2.41 3.31 2.40 1.64 1.15 1.01 1.19 1.55 2.30 2.30 2.92 2.45 2.27 2.44 2.38 4.42 2.69
0.42 0.28 0.34 0.37 0.50 1.21 0.90 3.39 2.86 1.91 1.77 2.90 1.35 0.91 0.57 0.47 0.71 0.80 0.18 0.13 0.43 0.36 0.26 0.25 0.41 0.67 0.76 0.96 1.28 1.67 1.57 1.82 1.76 1.71 1.73 1.54 0.96 0.68 0.85 0.99 1.66 2.04 1.63 2.06 1.58 1.72 2.10 2.84 3.72
0.08 0.13 0.20 0.45 0.48 0.31 0.41 1.08 1.99 1.54 1.59 1.86 1.57 1.19 0.75 0.65 0.32 0.22 0.31 0.45 0.26 0.21 0.20 0.28 0.33 0.38 0.50 0.72 1.43 1.85 1.41 2.18 2.04 1.49 1.58 1.42 1.15 0.61 0.56 0.88 1.41 1.57 1.33 1.28 1.11 1.91 2.31 2.55 2.69
0.02 0.12 0.22 0.36 0.53 0.42 0.21 0.24 1.01 0.97 1.10 1.37 0.73 0.94 1.21 0.70 0.39 0.48 0.43 0.31 0.26 0.20 0.23 0.20 0.22 0.27 0.36 0.45 0.76 1.26 1.87 2.29 2.20 2.01 1.85 1.37 0.96 0.85 0.95 1.06 1.42 1.67 1.58 1.76 1.62 1.96 2.01 2.58 2.44
0.05 0.17 0.21 0.28 0.21 0.33 0.32 0.54 0.76 0.61 0.55 0.57 0.55 0.92 1.09 1.29 0.81 0.48 0.29 0.34 0.26 0.32 0.20 0.10 0.16 0.15 0.23 0.27 0.44 0.71 1.34 1.68 1.92 1.80 1.67 2.00 1.32 1.05 1.29 1.74 1.98 1.50 1.67 1.95 2.18 1.77 1.77 2.27 2.31
0.01 0.01 0.13 0.36 0.34 0.41 0.51 0.71 0.55 0.15 0.13 0.23 0.34 0.57 0.44 0.47 0.92 0.54 0.50 0.49 0.46 0.80 0.56 0.20 0.16 0.19 0.18 0.42 0.57 0.79 1.05 1.37 1.19 1.37 1.76 2.10 1.52 1.55 1.87 2.00 1.90 1.93 1.96 2.03 2.36 1.87 1.57 1.94 1.81
0.01 0.03 0.04 0.06 0.11 0.08 0.45 1.09 0.92 0.46 0.22 0.29 0.16 0.35 0.46 0.43 0.55 0.75 0.65 0.83 0.67 0.40 0.51 0.58 0.45 0.47 0.42 0.49 0.84 0.81 1.10 1.44 1.58 2.32 1.99 1.89 2.24 2.12 3.22 2.87 2.47 3.13 3.20 2.81 2.84 2.47 2.34 2.85 2.17
0.07 0.16 0.07 0.03 0.08 0.13 0.41 0.88 2.07 1.28 0.95 0.61 0.40 0.23 0.52 0.62 1.02 0.94 0.89 1.00 1.00 0.57 0.44 0.70 1.29 1.49 1.52 0.88 0.68 0.80 1.48 1.45 1.51 1.89 1.45 1.76 2.24 2.52 5.67 4.90 3.25 2.96 2.99 2.46 2.86 2.18 2.68 2.33 1.82
0.05 0.04 0.04 0.03 0.05 0.22 0.57 0.83 1.01 1.65 0.69 0.46 0.63 0.48 0.55 0.71 1.00 2.07 1.94 2.03 2.22 1.66 1.29 1.54 2.11 1.73 1.47 1.07 0.81 1.06 1.17 1.26 1.06 0.76 0.79 0.83 1.20 1.99 3.13 5.15 2.98 2.87 2.66 2.33 3.09 2.64 3.22 2.65 2.30
0.20 0.11 0.15 0.03 0.15 0.29 0.39 0.78 1.00 1.61 0.80 0.45 0.47 0.46 0.54 0.72 0.76 1.30 2.13 3.04 4.59 3.96 3.00 3.55 3.72 2.41 1.83 1.80 0.74 1.16 1.53 1.67 0.96 0.58 0.46 0.44 0.67 1.33 2.23 3.27 3.15 2.99 2.51 2.50 3.14 3.02 2.59 2.99 2.67